Location: Amsterdam
(30.7274°N, 84.4357°W)
Time: 07:22:26
(UTC+00:00)

Transit 2A Rocket - Pass Details

Date: 22 February 2026
Orbit: 583 x 900 km, 66.7° (Epoch: 8 March)

Event Time Altitude Azimuth Distance (km) Brightness Sun altitude
Rises 20:35:30 0° 224° (SW) 3,446 9.4 33.4°
Reaches altitude 10° 20:38:07 10° 232° (SW) 2,537 9.2 32.9°
Maximum altitude 20:43:39 40° 300° (WNW) 1,306 6.8 32.0°
Drops below altitude 10° 20:49:16 10° 9° (N) 2,568 7.4 31.0°
Sets 20:51:56 0° 17° (NNE) 3,493 8.0 30.6°
